ARE4135 SKBQ-SKBO

Flight info

Callsign ARE4135
Flight time N/A
Altitude 35000
Route NINLO3A LOKOV UG444 EJA UQ119 ILSEV ILSEV5E
Aircraft A320/M-SDE3FGHIRWY/LB1

Departure

Time 2026-04-21 19:16
Airport Ernesto Cortissoz International Airport (SKBQ)

Arrival

Time N/A
Airport El Dorado International Airport (SKBO)
Time Latitude Longitude Altitude Speed Heading
2026-04-21 18:58 10.88551 -74.77712 96 ft 0 kts 310°
2026-04-21 19:01 10.88542 -74.77700 98 ft 4 kts 310°
2026-04-21 19:01 10.88524 -74.77679 97 ft 4 kts 310°
2026-04-21 19:01 10.88551 -74.77712 98 ft 0 kts 310°
2026-04-21 19:02 10.88512 -74.77754 99 ft 0 kts 354°
2026-04-21 19:08 10.88494 -74.77750 97 ft 4 kts 304°
2026-04-21 19:08 10.88484 -74.77729 95 ft 4 kts 249°
2026-04-21 19:08 10.88501 -74.77709 98 ft 4 kts 217°
2026-04-21 19:09 10.88515 -74.77699 97 ft 0 kts 219°
2026-04-21 19:11 10.88487 -74.77722 95 ft 17 kts 220°
2026-04-21 19:11 10.88449 -74.77766 96 ft 7 kts 258°
2026-04-21 19:11 10.88474 -74.77814 98 ft 9 kts 310°
2026-04-21 19:11 10.88521 -74.77872 96 ft 12 kts 309°
2026-04-21 19:12 10.88559 -74.77919 96 ft 14 kts 309°
2026-04-21 19:12 10.88549 -74.77988 97 ft 12 kts 216°
2026-04-21 19:12 10.88478 -74.78045 97 ft 14 kts 219°
2026-04-21 19:12 10.88421 -74.78127 98 ft 15 kts 260°
2026-04-21 19:13 10.88437 -74.78242 98 ft 18 kts 280°
2026-04-21 19:13 10.88373 -74.78343 99 ft 19 kts 219°
2026-04-21 19:13 10.88271 -74.78430 101 ft 20 kts 220°
2026-04-21 19:13 10.88161 -74.78524 103 ft 21 kts 220°
2026-04-21 19:14 10.88045 -74.78623 106 ft 22 kts 219°
2026-04-21 19:14 10.87936 -74.78717 108 ft 16 kts 226°
2026-04-21 19:14 10.87911 -74.78826 110 ft 17 kts 266°
2026-04-21 19:14 10.87911 -74.78943 109 ft 16 kts 304°
2026-04-21 19:15 10.88012 -74.78906 108 ft 26 kts 40°
2026-04-21 19:15 10.88349 -74.78616 103 ft 98 kts 40°
2026-04-21 19:15 10.89019 -74.78042 110 ft 149 kts 39°
2026-04-21 19:15 10.89848 -74.77346 580 ft 159 kts 39°
2026-04-21 19:16 10.90734 -74.76592 1161 ft 169 kts 39°
2026-04-21 19:16 10.91639 -74.75813 1738 ft 177 kts 39°
2026-04-21 19:16 10.92643 -74.74947 2060 ft 200 kts 39°
2026-04-21 19:16 10.93755 -74.73990 2462 ft 216 kts 40°
2026-04-21 19:17 10.95235 -74.71408 3685 ft 229 kts 98°
2026-04-21 19:17 10.94620 -74.69919 4492 ft 231 kts 123°
2026-04-21 19:17 10.93661 -74.68599 5316 ft 233 kts 129°
2026-04-21 19:18 10.92615 -74.67324 6119 ft 236 kts 129°
2026-04-21 19:18 10.91492 -74.66087 6879 ft 240 kts 140°
2026-04-21 19:18 10.90041 -74.65212 7527 ft 252 kts 158°
2026-04-21 19:18 10.88274 -74.64715 7889 ft 276 kts 166°
2026-04-21 19:19 10.86354 -74.64223 8440 ft 290 kts 165°
2026-04-21 19:19 10.84380 -74.63698 9217 ft 295 kts 165°
2026-04-21 19:19 10.82379 -74.63159 10017 ft 299 kts 165°
2026-04-21 19:19 10.80304 -74.62595 10377 ft 319 kts 165°
2026-04-21 19:20 10.78090 -74.61994 10703 ft 336 kts 165°
2026-04-21 19:20 10.75834 -74.61384 11304 ft 342 kts 165°
2026-04-21 19:20 10.73512 -74.60757 11993 ft 346 kts 165°
2026-04-21 19:20 10.71172 -74.60127 12679 ft 349 kts 165°
2026-04-21 19:21 10.68814 -74.59490 13365 ft 352 kts 165°
2026-04-21 19:21 10.66425 -74.58840 13991 ft 356 kts 165°
2026-04-21 19:21 10.64024 -74.58186 14583 ft 359 kts 165°
2026-04-21 19:21 10.61598 -74.57529 15171 ft 362 kts 165°
2026-04-21 19:22 10.59153 -74.56870 15753 ft 365 kts 165°
2026-04-21 19:22 10.56680 -74.56205 16340 ft 368 kts 165°
2026-04-21 19:22 10.54231 -74.55543 16911 ft 371 kts 164°
2026-04-21 19:22 10.51729 -74.54864 17486 ft 374 kts 164°
2026-04-21 19:23 10.49199 -74.54179 18060 ft 377 kts 164°
2026-04-21 19:23 10.46652 -74.53490 18560 ft 380 kts 164°
2026-04-21 19:23 10.44082 -74.52796 19047 ft 383 kts 164°
2026-04-21 19:23 10.41489 -74.52097 19539 ft 386 kts 164°
2026-04-21 19:24 10.38878 -74.51395 20046 ft 389 kts 164°
2026-04-21 19:24 10.36252 -74.50688 20543 ft 392 kts 164°
2026-04-21 19:24 10.33601 -74.49974 21056 ft 395 kts 164°
2026-04-21 19:24 10.30934 -74.49256 21563 ft 398 kts 164°
2026-04-21 19:25 10.28251 -74.48534 22071 ft 400 kts 164°
2026-04-21 19:25 10.25547 -74.47807 22578 ft 403 kts 164°
2026-04-21 19:25 10.22820 -74.47076 23087 ft 406 kts 163°
2026-04-21 19:25 10.20110 -74.46348 23554 ft 409 kts 163°
2026-04-21 19:26 10.17346 -74.45603 23946 ft 412 kts 163°
2026-04-21 19:26 10.14566 -74.44851 24351 ft 414 kts 164°
2026-04-21 19:26 10.11778 -74.44095 24747 ft 416 kts 164°
2026-04-21 19:26 10.08974 -74.43338 25138 ft 418 kts 164°
2026-04-21 19:27 10.06150 -74.42577 25515 ft 421 kts 164°
2026-04-21 19:27 10.03308 -74.41814 25891 ft 423 kts 165°
2026-04-21 19:27 10.00449 -74.41047 26263 ft 426 kts 165°
2026-04-21 19:27 9.97574 -74.40276 26633 ft 428 kts 165°
2026-04-21 19:28 9.94681 -74.39501 26983 ft 430 kts 165°
2026-04-21 19:28 9.91776 -74.38724 27344 ft 433 kts 165°
2026-04-21 19:28 9.88857 -74.37941 27675 ft 435 kts 165°
2026-04-21 19:28 9.85917 -74.37149 28009 ft 437 kts 165°
2026-04-21 19:29 9.82964 -74.36353 28359 ft 440 kts 165°
2026-04-21 19:29 9.80036 -74.35564 28707 ft 442 kts 165°
2026-04-21 19:29 9.77053 -74.34761 29061 ft 444 kts 166°
2026-04-21 19:29 9.74054 -74.33956 29414 ft 447 kts 166°
2026-04-21 19:30 9.71034 -74.33147 29769 ft 449 kts 166°
2026-04-21 19:30 9.68002 -74.32332 30098 ft 452 kts 166°
2026-04-21 19:30 9.64957 -74.31514 30382 ft 454 kts 166°
2026-04-21 19:30 9.61895 -74.30695 30697 ft 456 kts 166°
2026-04-21 19:31 9.58824 -74.29874 31000 ft 457 kts 166°
2026-04-21 19:31 9.55744 -74.29051 31298 ft 459 kts 166°
2026-04-21 19:31 9.52652 -74.28223 31593 ft 460 kts 166°
2026-04-21 19:31 9.49553 -74.27393 31965 ft 460 kts 166°
2026-04-21 19:32 9.46469 -74.26567 32414 ft 458 kts 166°
2026-04-21 19:32 9.43391 -74.25743 32858 ft 456 kts 166°
2026-04-21 19:32 9.40327 -74.24923 33308 ft 454 kts 166°
2026-04-21 19:32 9.37272 -74.24104 33770 ft 452 kts 166°
2026-04-21 19:33 9.35257 -74.23564 34055 ft 451 kts 166°
2026-04-21 19:33 9.31245 -74.22487 34594 ft 449 kts 166°
2026-04-21 19:33 9.28226 -74.21678 34843 ft 448 kts 166°
2026-04-21 19:33 9.25221 -74.20873 34910 ft 442 kts 166°
2026-04-21 19:34 9.19313 -74.19285 34919 ft 436 kts 165°
2026-04-21 19:34 9.13451 -74.17716 34920 ft 435 kts 165°
2026-04-21 19:35 9.04666 -74.15371 34924 ft 434 kts 165°
2026-04-21 19:36 8.98855 -74.13821 34917 ft 434 kts 165°
2026-04-21 19:36 8.93004 -74.12260 34927 ft 434 kts 165°
2026-04-21 19:37 8.87156 -74.10699 34933 ft 434 kts 165°
2026-04-21 19:37 8.81318 -74.09131 34934 ft 433 kts 165°
2026-04-21 19:38 8.75483 -74.07570 34934 ft 433 kts 165°
2026-04-21 19:38 8.70636 -74.06277 34939 ft 433 kts 165°
2026-04-21 19:39 8.63871 -74.04479 34941 ft 432 kts 165°
2026-04-21 19:39 8.58052 -74.02934 34949 ft 432 kts 165°
2026-04-21 19:40 8.52243 -74.01387 34950 ft 431 kts 165°
2026-04-21 19:40 8.46445 -73.99835 34956 ft 431 kts 165°
2026-04-21 19:41 8.40640 -73.98284 34960 ft 430 kts 165°
2026-04-21 19:41 8.34885 -73.96750 34962 ft 430 kts 166°
2026-04-21 19:42 8.29096 -73.95220 34961 ft 429 kts 166°
2026-04-21 19:42 8.23315 -73.93680 34964 ft 429 kts 165°
2026-04-21 19:43 8.17538 -73.92134 34961 ft 429 kts 165°
2026-04-21 19:43 8.11757 -73.90595 34954 ft 429 kts 165°
2026-04-21 19:44 8.05988 -73.89061 34954 ft 428 kts 166°
2026-04-21 19:44 8.00116 -73.88327 34952 ft 428 kts 175°
2026-04-21 19:45 7.94179 -73.87863 34949 ft 428 kts 175°
2026-04-21 19:45 7.88242 -73.87390 34944 ft 428 kts 175°
2026-04-21 19:46 7.82301 -73.86902 34941 ft 428 kts 175°
2026-04-21 19:46 7.76358 -73.86424 34935 ft 428 kts 175°
2026-04-21 19:47 7.70400 -73.85951 34941 ft 428 kts 175°
2026-04-21 19:47 7.64488 -73.85485 34938 ft 429 kts 175°
2026-04-21 19:48 7.58538 -73.85004 34937 ft 429 kts 175°
2026-04-21 19:48 7.52594 -73.84521 34937 ft 428 kts 175°
2026-04-21 19:49 7.46640 -73.84050 34933 ft 428 kts 175°
2026-04-21 19:49 7.40693 -73.83577 34932 ft 428 kts 175°
2026-04-21 19:50 7.35751 -73.83181 34930 ft 428 kts 175°
2026-04-21 19:50 7.28833 -73.82631 34932 ft 428 kts 175°
2026-04-21 19:51 7.22887 -73.82162 34935 ft 429 kts 175°
2026-04-21 19:51 7.16935 -73.81685 34933 ft 429 kts 175°
2026-04-21 19:52 7.10977 -73.81207 34931 ft 429 kts 175°
2026-04-21 19:52 7.05033 -73.80732 34932 ft 428 kts 176°
2026-04-21 19:53 7.00099 -73.81064 34929 ft 429 kts 189°
2026-04-21 19:53 6.94229 -73.82176 34930 ft 429 kts 189°
2026-04-21 19:54 6.88359 -73.83278 34925 ft 429 kts 189°
2026-04-21 19:54 6.82481 -73.84373 34930 ft 430 kts 189°
2026-04-21 19:55 6.76592 -73.85473 34930 ft 430 kts 189°
2026-04-21 19:55 6.70744 -73.86566 34935 ft 430 kts 189°
2026-04-21 19:56 6.64863 -73.87663 34938 ft 430 kts 189°
2026-04-21 19:56 6.58973 -73.88768 34946 ft 430 kts 189°
2026-04-21 19:57 6.53078 -73.89874 34955 ft 431 kts 189°
2026-04-21 19:57 6.47177 -73.90982 34956 ft 431 kts 189°
2026-04-21 19:58 6.41282 -73.92084 34963 ft 431 kts 189°
2026-04-21 19:58 6.35417 -73.93179 34973 ft 431 kts 189°
2026-04-21 19:59 6.29518 -73.94283 34983 ft 431 kts 189°
2026-04-21 19:59 6.23596 -73.95389 34699 ft 433 kts 189°
2026-04-21 19:59 6.20631 -73.95940 34465 ft 432 kts 189°
2026-04-21 20:00 6.17681 -73.96489 34248 ft 431 kts 189°
2026-04-21 20:00 6.14741 -73.97040 34027 ft 429 kts 189°
2026-04-21 20:00 6.11803 -73.97591 33778 ft 428 kts 189°
2026-04-21 20:00 6.08885 -73.98137 33446 ft 424 kts 189°
2026-04-21 20:01 6.06001 -73.98675 32966 ft 420 kts 189°
2026-04-21 20:01 6.03128 -73.99210 32462 ft 418 kts 189°
2026-04-21 20:01 6.00308 -73.99737 31975 ft 417 kts 190°
2026-04-21 20:01 5.97458 -74.00275 31473 ft 415 kts 190°
2026-04-21 20:02 5.94622 -74.00813 30987 ft 414 kts 190°
2026-04-21 20:02 5.91789 -74.01351 30499 ft 413 kts 190°